ONEWEB-0109 (47259 NORAD) Tracking and Keplerian Element Data

This shows tracking and keplerian element data for the satellite.

Feedback or suggestion? Click here.




ElementValue
Catalog47259
NameONEWEB-0109
Epoch Orbit173
Epoch Day101.91668981
Epoch Year2021
RAAN6.8358
Inclination87.921
Eccentricity0.0001937
Argument of Perigee107.037
Mean Anonmoly249.2992
Mean Motion13.23614505
Decay Rate-0.0003581
L11 47259U 20100B 21101.91668981 -.00035810 00000-0 -84797-1 0 9998
L22 47259 87.9210 6.8358 0001937 107.0370 249.2992 13.23614505 1732

Live tracking and technical data element details for ONEWEB-0109 (NORAD 47259). ONEWEB-0109 can be tracked NOW for your location showing map with azimuth and elevation plus other details from your city location.

Track the satellite on the map from your city or location and see movement details for azimuth, elevation, latitude, longitude, range, height, and movement on the map or in text.







IsCatalogInMostPopularTable: catalog: 47259, numindb: 27
Update: records affected: 1



GetName: 47259 ONEWEB-0109

Hit Count: updated at: Tue, 13 Apr 2021 05:25:28 GMT